This is the latest recevied weather packets stored in our database for station/object WX4FUN-13. If no packets are shown the sender has not sent any weather packets the latest 10 day(s).
| Time | Temp. | Humidity | Pressure | Rain* | Wind** | Luminosity | Snow |
|---|---|---|---|---|---|---|---|
| 1777533172 | 9.44° C | 95% | 1009.5 hPa | 2.79 mm | - | 0 W/m² | - |
| 1777532572 | 9.44° C | 94% | 1009.3 hPa | 3.3 mm | - | 0 W/m² | - |
| 1777531971 | 9.44° C | 94% | 1009.3 hPa | 3.05 mm | - | 0 W/m² | - |
| 1777531372 | 9.44° C | 94% | 1009.5 hPa | 2.79 mm | - | 0 W/m² | - |
| 1777530772 | 9.44° C | 93% | 1009.4 hPa | 3.05 mm | - | 0 W/m² | - |
| 1777530175 | 10° C | 93% | 1009.7 hPa | 2.79 mm | - | 0 W/m² | - |
| 1777529574 | 10° C | 93% | 1010 hPa | 2.79 mm | - | 0 W/m² | - |
| 1777528974 | 10° C | 92% | 1010.3 hPa | 2.79 mm | - | 0 W/m² | - |
| 1777528374 | 10° C | 91% | 1010.4 hPa | 2.54 mm | - | 0 W/m² | - |
| 1777527761 | 10° C | 90% | 1010.5 hPa | 2.03 mm | - | 0 W/m² | - |
| 1777527144 | 10.56° C | 89% | 1010.6 hPa | 1.52 mm | - | 0 W/m² | - |
| 1777526545 | 10.56° C | 87% | 1010.7 hPa | 1.27 mm | - | 0 W/m² | - |
| 1777525945 | 11.11° C | 85% | 1010.7 hPa | 0.51 mm | - | 0 W/m² | - |
| 1777525346 | 11.11° C | 82% | 1010.7 hPa | 0.25 mm | - | 0 W/m² | - |
| 1777524731 | 11.67° C | 80% | 1010.7 hPa | 0.25 mm | - | 0 W/m² | - |
| 1777524131 | 11.67° C | 78% | 1010.8 hPa | 0 mm | - | 0 W/m² | - |
| 1777523532 | 12.22° C | 76% | 1010.8 hPa | 0 mm | - | 0 W/m² | - |
| 1777522931 | 12.22° C | 74% | 1010.8 hPa | 0 mm | - | 0 W/m² | - |
| 1777522331 | 12.22° C | 72% | 1011 hPa | 0 mm | - | 0 W/m² | - |
| 1777521730 | 12.78° C | 70% | 1011.2 hPa | 0 mm | - | 0 W/m² | - |
| 1777521115 | 12.78° C | 70% | 1011.2 hPa | 0 mm | - | 0 W/m² | - |
| 1777520519 | 12.78° C | 68% | 1011.2 hPa | 0 mm | - | 0 W/m² | - |
| 1777519915 | 13.33° C | 67% | 1011.2 hPa | 0 mm | - | 0 W/m² | - |
| 1777519315 | 13.33° C | 67% | 1011.2 hPa | 0 mm | - | 0 W/m² | - |
| 1777518711 | 13.33° C | 66% | 1011.3 hPa | 0 mm | - | 0 W/m² | - |
* Rain latest hour (hover to see other rain measurements)
** Current wind speed in m/s (hover to see current wind gust speed)